728  
ASUS42 KCAE 200310  
RWRCAE  
REGIONAL WEATHER ROUNDUP  
NATIONAL WEATHER SERVICE COLUMBIA SC  
1100 PM EDT TUE JUN 19 2018  
 
NOTE: "FAIR" INDICATES FEW OR NO CLOUDS BELOW 12,000 FEET WITH NO  
SIGNIFICANT WEATHER AND/OR S TO VISIBILITY
.  
 
NOT ALL STATIONS ARE QUALITY CONTROLLED BY THE NATIONAL  
WEATHER SERVICE. USE DATA WITH CAUTION...ESPECIALLY  
DEWPOINT OBSERVATIONS.  
 
SCZ001>056-GAZ040-063>065-077-200400-   
..UPSTATE SOUTH CAROLINA
 
 
 
CITY SKY/WX TMP DP RH WIND PRES REMARKS
 
ANDERSON FAIR 79 73 82 NW5 29.96R  
LIBERTY FAIR 76 76 100 CALM 29.96S  
SPARTANBURG FAIR 77 70 78 CALM 29.95S  
CLEMSON FAIR 77 71 82 NW6 29.98R  
GREENVILLE FAIR 83 69 62 N7 29.97S  
GREENWOOD FAIR 78 74 87 CALM 29.96R  
GREER FAIR 76 73 91 N3 29.97R  
ROCK HILL FAIR 78 73 84 CALM 29.94R  
CHESTER FAIR 79 66 65 CALM 29.94S  
LAURENS FAIR 79 73 83 CALM 29.94F  
 
   
..CENTRAL SOUTH CAROLINA
 
 
 
CITY SKY/WX TMP DP RH WIND PRES REMARKS
 
COLUMBIA APT FAIR 83 79 88 CALM 29.91R  
COLUMBIA OWENS FAIR 86 67 52 CALM 29.91S  
MCENTIRE ANGB FAIR 80 71 75 CALM 29.92R  
ORANGEBURG FAIR 82 76 81 S7 29.93R  
SUMTER SHAW FAIR 80 73 78 E3 29.90R  
NEWBERRY FAIR 81 73 78 CALM 29.96S  
AIKEN FAIR 81 72 74 S5 29.97S  
BARNWELL FAIR 84 75 74 S6 29.94R  
MANNING FAIR 79 72 78 SW5 29.92S  
CAMDEN FAIR 84 73 70 SE5 29.93R  
WINNSBORO FAIR 82 70 65 CALM 29.93S  
 
   
..EASTERN AND COASTAL SOUTH CAROLINA
 
 
 
CITY SKY/WX TMP DP RH WIND PRES REMARKS
 
MYRTLE BEACH FAIR 82 74 76 SW9 29.92S  
N MYRTLE BCH FAIR 81 77 88 SW6 29.90R  
CONWAY FAIR 81 79 94 SW7 29.91S  
MARION FAIR 81 72 74 S6 29.90R  
HARTSVILLE FAIR 79 68 69 SW6 29.91S  
FLORENCE FAIR 83 75 77 SW8 29.90R  
DARLINGTON N/A 84 73 69 SW9 29.90S  
CHARLESTON APT FAIR 80 77 90 S8 29.93S  
MOUNT PLEASANT FAIR 81 77 89 S7 29.94S  
WALTERBORO FAIR 79 75 89 S6 29.95R  
BEAUFORT FAIR 82 77 84 S6 29.94  
 
   
..EASTERN GEORGIA
 
 
 
CITY SKY/WX TMP DP RH WIND PRES REMARKS
 
AUGUSTA BUSH F FAIR 80 75 84 CALM 29.91R  
AUGUSTA DANIEL FAIR 86 74 67 W3 29.94R  
THOMSON FAIR 79 75 87 CALM 29.99R  
CLAXTON FAIR 82 76 81 CALM 29.95R  
SYLVANIA FAIR 83 77 81 S3 29.95R  
STATESBORO FAIR 82 75 80 N5 29.94S  
SAVANNAH FAIR 82 75 79 S7 29.95R  
 
   
..SOUTHERN NORTH CAROLINA
 
 
 
CITY SKY/WX TMP DP RH WIND PRES REMARKS
 
CHARLOTTE MOCLDY 82 71 69 NW6 29.93R  
MONROE FAIR 81 70 69 SW5 29.91S  
WADESBORO FAIR 79 74 82 CALM 29.89S  
ROCKINGHAM FAIR 82 71 69 CALM 29.90S  
RUTHERFORDTON FAIR 77 76 94 CALM 29.98R  
ASHEVILLE MOCLDY 75 69 81 N3 30.06R  
 

 
 
 
CLICK HERE TO GO TO PREVIOUS BULLETINS.

The Nexlab SC Page
The Nexlab GA Page Main Text Page